Flag for United Kingdom Weather past 2 weeks in Cheltenham, England, United Kingdom

Now
53 °F

Cool.


Feels Like: 51 °F
Forecast: 51 / 68 °F
Wind: 7 mph from West

Location: Little Rissington

Current Time: Aug 31, 2014 at 1:23:03 AM

Latest Report: Aug 31, 2014 at 12:00 AM


Visibility: 13 mi

Pressure: 30.04 "Hg

Humidity: 94%

Dew point: 51 °F

Location of CheltenhamLocation

Historic Weather in Cheltenham — Graph

°F

Cheltenham temperature yesterday

Maximum temperature yesterday: 62 °F (at 2:00 PM)
Minimum temperature yesterday: 52 °F (at 7:00 AM)
Average temperature yesterday: 58 °F

Past Weeks' High & Low Weather Summary

 TemperatureHumidityPressure
High66 °F (Aug 28, 1:00 PM)100% (Aug 25, 9:00 AM)30.17 "Hg (Aug 25, 9:00 AM)
Low42 °F (Aug 20, 6:00 AM)48% (Aug 17, 6:00 PM)29.50 "Hg (Aug 25, 7:00 PM)
Average55 °F82%29.90 "Hg
* Reported Midnight between Aug 15 and Aug 16 — Midnight between Aug 30 and Aug 31, Cheltenham, Weather by CustomWeather, © 2014

Note: Actual official high and low records may vary slightly from our data, if they occured in-between our weather recording intervals... More about our weather records

Advertising

Cheltenham weather history for previous 24 hours

 ConditionsComfort  
Time TempWeatherWind HumidityBarometerVisibility
12:00 AM
Aug 31
53 °FCool.7 mph94%30.04 "Hg12 mi
11:00 PM
Aug 30
54 °FCool.9 mph91%30.03 "Hg14 mi
10:00 PM57 °FCool.6 mph85%30.03 "Hg16 mi
9:00 PM57 °FCool.9 mph83%30.02 "Hg17 mi
8:00 PM58 °FCool.9 mph78%30.01 "Hg18 mi
7:00 PM60 °FCool.12 mph71%30.01 "Hg19 mi
6:00 PM61 °FCool.13 mph69%29.99 "Hg19 mi
5:00 PM61 °FCool.15 mph70%29.99 "Hg19 mi
4:00 PM62 °FCool.13 mph71%29.98 "Hg19 mi
3:00 PM62 °FCool.14 mph69%29.98 "Hg19 mi
2:00 PM62 °FCool.15 mph70%29.98 "Hg19 mi
1:00 PM61 °FCool.12 mph74%29.98 "Hg18 mi
12:00 PM59 °FCool.13 mph75%29.98 "Hg17 mi
11:00 AM58 °FCool.13 mph77%29.98 "Hg17 mi
10:00 AM58 °FCool.13 mph78%29.96 "Hg16 mi
9:00 AM55 °FCool.12 mph82%29.95 "Hg16 mi
8:00 AM53 °FCool.9 mph84%29.95 "Hg16 mi
7:00 AM52 °FCool.12 mph84%29.93 "Hg17 mi
6:00 AM53 °FCool.13 mph80%29.91 "Hg16 mi
4:00 AM58 °FCool.14 mph95%29.88 "Hg19 mi
3:00 AM59 °FCool.16 mph96%29.88 "Hg17 mi
1:00 AM59 °FCool.16 mph95%29.88 "Hg17 mi
Weather by CustomWeather, © 2014

See weather overviewHow to use our weather pages